Location: Waco, TX
(31.5480°N, 97.1670°W)
Time: 03:06:16
(UTC-05:00)

ISS - Pass Details

Date: 17 September 2017
Orbit: 401 x 407 km, 51.6° (Epoch: 22 September)

Event Time Altitude Azimuth Distance (km) Brightness Sun altitude
Rises 07:31:26 0° 315° (NW) 2,328 -0.4 2.9°
Reaches altitude 10° 07:33:31 10° 316° (NW) 1,465 -1.4 3.3°
Maximum altitude 07:36:49 86° 46° (NE) 410 -3.6 4.0°
Drops below altitude 10° 07:40:05 10° 135° (SE) 1,456 -0.2 4.7°
Sets 07:42:09 0° 135° (SE) 2,311 0.8 5.1°
